{"data":{"norad_id":63989,"intl_designator":"2025-100H","name":"SCS-01 H","alt_names":[],"object_type":"PAYLOAD","status":"ACTIVE","operator":null,"country":"PRC","launch_date":"2025-05-14","launch_site_code":"JSC","launch_vehicle":null,"mission":null,"orbit_class":"UNKNOWN","rcs_meters":null,"size_class":null,"mass_kg":null,"dimensions":null,"purposes":[],"wikipedia_slug":null,"has_3d_model":false,"image_url":null,"decayed_at":null,"tle_current":{"epoch":"2026-05-25T04:16:31.620000Z","epoch_age_seconds":49884,"freshness":"FRESH","line1":"1 63989U 25100H   26145.17814375  .00029803  00000+0  89895-3 0  9990","line2":"2 63989  97.3688 221.6952 0007925  18.9331 341.2205 15.34215326 57330","mean_motion":15.34215326,"eccentricity":0.0007925,"inclination_deg":97.3688,"raan_deg":221.6952,"arg_perigee_deg":18.9331,"mean_anomaly_deg":341.2205,"bstar":0.00089895,"rev_number":5733,"period_min":93.859054566634,"perigee_km":457.83038438169,"apogee_km":468.6739862404,"semimajor_km":6841.389185311,"source":"CELESTRAK","updated_at":"2026-05-25T13:38:04.148814Z"}}}